Sandberg, CA

8:53 PM PDT on May 28, 2017 (GMT -0700)
Sandberg

Weather History for KSDB - December, 2012

Change the Weather History Date:

Saturday, December 1, 2012

  Actual Average Record
Temperature  
Mean Temperature 48 °F 44 °F  
Max Temperature 50 °F 50 °F 71 °F (2008)
Min Temperature 46 °F 38 °F 25 °F (1967)
Degree Days  
Heating Degree Days 17 21  
Month to date heating degree days 17 21  
Since 1 July heating degree days 579 800  
Cooling Degree Days 0 0  
Month to date cooling degree days 0 0  
Year to date cooling degree days 1360 998  
Moisture  
Dew Point 47 °F    
Average Humidity 97    
Maximum Humidity 100    
Minimum Humidity 93    
Precipitation  
Precipitation 0.10 in 0.04 in 1.25 in (1973)
Month to date precipitation 0.10 0.04  
Year to date precipitation 4.76 10.12  
Since 1 July precipitation 0.49  
Sea Level Pressure  
Sea Level Pressure 30.14 in    
Wind  
Wind Speed 9 mph (SSW)    
Max Wind Speed 17 mph    
Max Gust Speed 23 mph    
T = Trace of Precipitation, MM = Missing Value Source: NWS Daily Summary

Daily Weather History Graph

Daily Weather History Graph

Search for Another Location

Airport or City:

Trip Planner

Search our weather history database for the weather conditions in past years. The results will help you decide how hot, cold, wet, or windy it might be!

Date:

Astronomy

Dec. 01, 2012 Rise Set
Actual Time 6:44 AM PST 4:43 PM PST
Civil Twilight 6:16 AM PST 5:11 PM PST
Nautical Twilight 5:45 AM PST 5:42 PM PST
Astronomical Twilight 5:15 AM PST 6:13 PM PST
Moon 7:36 PM PST (12/1) 9:02 AM PST (12/1)
Length of Visible Light 10h 54m
Length of Day
9h 59m
Waning Gibbous, 91% of the Moon is Illuminated
Dec 1
Waning Gibbous
Dec 6
Last Quarter
Dec 13
New
Dec 19
First Quarter
Dec 28
Full

Hourly Weather History & Observations

Time (PST) Temp. Windchill Dew Point Humidity Pressure Visibility Wind Dir Wind Speed Gust Speed Precip Events Conditions
12:48 AM 46.0 °F 42.5 °F 45.0 °F 96% 30.10 in 0.2 mi SSW 6.9 mph - N/A Fog Fog
1:48 AM 46.0 °F 44.8 °F 45.0 °F 96% 30.10 in 0.2 mi SSW 3.5 mph - N/A Fog Fog
2:48 AM 46.0 °F 41.4 °F 46.0 °F 100% 30.10 in 0.2 mi SSW 9.2 mph - N/A Fog Fog
3:48 AM 46.0 °F 41.0 °F 45.0 °F 96% 30.09 in 0.2 mi SSW 10.4 mph - N/A Fog Fog
4:48 AM 46.0 °F 41.0 °F 45.0 °F 96% 30.10 in 0.2 mi SSW 10.4 mph - N/A Fog Fog
5:48 AM 46.0 °F 41.4 °F 45.0 °F 96% 30.12 in 0.2 mi SSW 9.2 mph - N/A Fog Fog
6:48 AM 46.0 °F 41.4 °F 46.0 °F 100% 30.13 in 0.2 mi SW 9.2 mph - N/A Fog Fog
7:48 AM 46.0 °F 41.0 °F 45.0 °F 96% 30.14 in 0.2 mi SSW 10.4 mph - N/A Fog Fog
8:48 AM 46.0 °F 41.4 °F 46.0 °F 100% 30.15 in 0.2 mi SSW 9.2 mph - N/A Fog Fog
9:35 AM 46.4 °F 41.9 °F 46.4 °F 100% 30.21 in 0.5 mi SSW 9.2 mph - N/A Fog Fog
9:39 AM 46.4 °F 41.9 °F 46.4 °F 100% 30.21 in 0.8 mi SSW 9.2 mph - N/A   Mist
9:50 AM 46.4 °F 40.7 °F 46.4 °F 100% 30.21 in 1.2 mi SW 12.7 mph - N/A   Overcast
9:54 AM 46.4 °F 41.5 °F 46.4 °F 100% 30.21 in 0.5 mi SSW 10.4 mph - N/A Fog Fog
10:03 AM 48.2 °F - 46.4 °F 93% 30.21 in 1.5 mi SSW 8.1 mph - N/A   Overcast
10:11 AM 48.2 °F - 46.4 °F 93% 30.21 in 2.5 mi SSW 6.9 mph - N/A   Overcast
10:21 AM 48.2 °F - 48.2 °F 100% 30.21 in 1.2 mi SW 9.2 mph - N/A   Overcast
10:26 AM 48.2 °F - 46.4 °F 93% 30.21 in 0.5 mi SW 9.2 mph - N/A Fog Fog
10:37 AM 48.2 °F - 48.2 °F 100% 30.21 in 1.5 mi SSW 9.2 mph 17.3 mph N/A   Overcast
10:41 AM 48.2 °F - 48.2 °F 100% 30.21 in 2.0 mi SW 10.4 mph - N/A   Overcast
10:48 AM 48.9 °F - 48.0 °F 97% 30.14 in 2.5 mi SW 10.4 mph - N/A   Overcast
10:57 AM 48.2 °F - 48.2 °F 100% 30.20 in 1.0 mi SSW 9.2 mph - N/A   Overcast
11:04 AM 48.2 °F - 48.2 °F 100% 30.20 in 0.5 mi SSW 12.7 mph 16.1 mph N/A Fog Fog
11:09 AM 48.2 °F - 48.2 °F 100% 30.20 in 0.2 mi South 10.4 mph - N/A Fog Fog
11:48 AM 48.9 °F - 48.0 °F 97% 30.11 in 0.2 mi SSW 12.7 mph - N/A Fog Fog
11:57 AM 48.2 °F - 48.2 °F 100% 30.17 in 0.2 mi SSW 11.5 mph 19.6 mph N/A Fog Fog
12:48 PM 50.0 °F - 48.9 °F 96% 30.09 in 0.2 mi South 15.0 mph 23.0 mph 0.00 in Fog , Rain Light Rain
1:48 PM 50.0 °F - 50.0 °F 100% 30.07 in 0.2 mi South 13.8 mph 21.9 mph 0.00 in Fog Fog
2:48 PM 50.0 °F - 48.9 °F 96% 30.06 in 0.2 mi South 10.4 mph 20.7 mph 0.01 in Fog Fog
3:48 PM 50.0 °F - 50.0 °F 100% 30.06 in 0.2 mi SSW 6.9 mph - 0.01 in Fog , Rain Light Rain
4:48 PM 50.0 °F - 48.9 °F 96% 30.06 in 0.2 mi South 9.2 mph - 0.01 in Fog , Rain Light Rain
5:48 PM 50.0 °F - 48.9 °F 96% 30.06 in 0.2 mi Variable 5.8 mph - 0.02 in Fog Fog
6:48 PM 48.9 °F - 48.9 °F 100% 30.07 in 0.2 mi South 5.8 mph - 0.01 in Fog , Rain Light Rain
7:48 PM 48.9 °F - 48.9 °F 100% 30.07 in 0.2 mi South 6.9 mph - 0.01 in Fog Fog
8:24 PM 48.2 °F - 48.2 °F 100% 30.15 in 0.2 mi SSW 4.6 mph - 0.02 in Fog Fog
8:48 PM 48.9 °F - 48.0 °F 97% 30.09 in 0.2 mi SSW 6.9 mph - 0.02 in Fog Fog
9:48 PM 48.9 °F - 48.0 °F 97% 30.08 in 0.2 mi South 9.2 mph - 0.01 in Fog , Rain Light Rain
10:03 PM 48.2 °F - 48.2 °F 100% 30.15 in 0.2 mi SSW 8.1 mph - 0.00 in Fog Fog
10:24 PM 48.2 °F - 48.2 °F 100% 30.16 in 0.2 mi WSW 8.1 mph - 0.00 in Fog , Rain Light Rain
10:48 PM 48.9 °F - 48.0 °F 97% 30.09 in 0.5 mi SSW 8.1 mph - 0.00 in Fog , Rain Light Rain
10:55 PM 48.2 °F - 48.2 °F 100% 30.16 in 0.2 mi SSW 6.9 mph - 0.00 in Fog Fog
11:04 PM 48.2 °F - 48.2 °F 100% 30.16 in 0.5 mi SW 6.9 mph - 0.00 in Fog Fog
11:15 PM 48.2 °F - 48.2 °F 100% 30.16 in 0.2 mi SW 9.2 mph - 0.00 in Fog Fog
11:32 PM 48.2 °F - 46.4 °F 93% 30.16 in 0.5 mi WSW 5.8 mph - 0.00 in Fog Fog
11:39 PM 48.2 °F - 46.4 °F 93% 30.16 in 0.2 mi SW 9.2 mph - 0.00 in Fog Fog
11:48 PM 48.0 °F - 46.9 °F 96% 30.09 in 0.2 mi SSW 8.1 mph - 0.00 in Fog Fog